Location: Peebles
(55.6412°N, 3.1714°W)
Time: 18:04:51
(UTC+01:00)

USA 281 - Pass Details

Date: 01 February 2022
Orbit: 1070 x 1089 km, 106.0° (Epoch: 25 March)

Event Time Altitude Azimuth Distance (km) Brightness Sun altitude
Rises 03:35:35 0° 30° (NNE) 3,906 6.8 -37.5°
Reaches altitude 10° 03:38:09 10° 26° (NNE) 2,948 6.0 -37.2°
Enters shadow 03:42:17 38° 5° (N) 1,604 4.2 -36.6°
